User: anonymous   Login
Location: Fort Wayne
(41.1310°N, 85.1290°W)
Time: 14:17:10
(UTC-04:00)
Language:

Oscar 19 - Orbit

View from above orbital plane
View from above orbital plane
View from above satellite
View from above satellite

Ground track
Ground track

The orbit data is extracted from the following two-line orbital elements,

1 20442U 90005G   16181.07674301 -.00000007  00000-0  13369-4 0  9995
2 20442  98.5438 115.8533 0012905 109.0046 251.2537 14.32820670381059
Epoch (UTC): 29 June 2016 01:50:30
Eccentricity: 0.0012905
inclination: 98.5438°
perigee height: 773 km
apogee height: 791 km
right ascension of ascending node: 115.8533°
argument of perigee: 109.0046°
revolutions per day: 14.32820670
mean anomaly at epoch: 251.2537°
orbit number at epoch: 38105

The dashed part of the orbit path shows where the satellite is in the earth's shadow,  

DLR